Regional Weather Roundup
Issued by NWS Little Rock, AR

Home | Current Version | Previous Version | Graphics & Text | Print | Product List | Glossary On
Versions: 1 2 3 4 5 6 7 8 9 10 11 12 13 14 15 16 17 18 19 20 21 22 23 24 25 26 27 28 29 30 31 32 33 34 35 36 37 38 39 40 41 42 43 44 45 46 47 48 49 50
000
ASUS44 KLZK 272305
RWRLZK

WEATHER ROUNDUP FOR ARKANSAS
NATIONAL WEATHER SERVICE LITTLE ROCK AR
600 PM CDT FRI MAY 27 2016

NOTE: "FAIR" INDICATES FEW OR NO CLOUDS BELOW 12,000 FEET WITH NO
SIGNIFICANT WEATHER AND/OR OBSTRUCTIONS TO VISIBILITY.

ARZ001-003-010-029-280000-
NORTHWEST ARKANSAS

CITY           SKY/WX    TMP DP  RH WIND       PRES   REMARKS
FAYETTEVILLE   CLOUDY    74  66  76 SE7       29.75F
FORT SMITH     CLOUDY    77  63  61 SW9       29.73F
HARRISON       CLOUDY    74  65  73 S9        29.77F
BENTONVILLE    CLOUDY    75  63  64 S8        29.75F
ROGERS           N/A     74  65  73 S10       29.75F
SILOAM SPGS    CLOUDY    73  61  64 S13       29.74F
HIGHFILL       CLOUDY    75  67  76 S14       29.74F
SPRINGDALE     MOSUNNY   75  64  69 S9G16     29.77F
$$

ARZ004-005-016-280000-
NORTH CENTRAL ARKANSAS

CITY           SKY/WX    TMP DP  RH WIND       PRES   REMARKS
BATESVILLE     CLOUDY    75  68  78 SE9       29.81R
FLIPPIN        CLOUDY   N/A N/A N/A SE3       29.73S
MTN HOME       PTSUNNY   74  70  87 SE6       29.76S
$$

ARZ040-041-280000-
WEST CENTRAL ARKANSAS

CITY           SKY/WX    TMP DP  RH WIND       PRES   REMARKS
MENA           CLOUDY    72  64  78 CALM      29.78F
MOUNT IDA      CLOUDY    71  64  78 CALM      29.76F
$$

ARZ009-017-025-026-028-280000-
NORTHEAST ARKANSAS

CITY           SKY/WX    TMP DP  RH WIND       PRES   REMARKS
CORNING          N/A     75  73  94 SE12      29.82F
JONESBORO      CLOUDY    76  72  87 SE10      29.82S
NEWPORT        LGT RAIN  75  71  87 SE15      29.83R
WALNUT RIDGE   CLOUDY    75  70  83 S13       29.81S
BLYTHEVILLE    CLOUDY    78  68  71 S9        29.86F
$$

ARZ022-023-033-042-044-280000-
CENTRAL ARKANSAS

CITY           SKY/WX    TMP DP  RH WIND       PRES   REMARKS
LITTLE ROCK    LGT RAIN  74  65  73 SW9       29.80R
N LITTLE ROCK    N/A     73  66  77 S6        29.77R
JACKSONVILLE   DRIZZLE   76  66  71 S9        29.79R
SEARCY         CLOUDY    73  70  88 SE3       29.82R
HOT SPRINGS    CLOUDY    72  64  76 VRB5      29.79R
RUSSELLVILLE   PTSUNNY   75  65  70 S7        29.76S
CLINTON        FAIR      77  66  69 S6        29.77S
$$

ARZ036-280000-
EAST ARKANSAS

CITY           SKY/WX    TMP DP  RH WIND       PRES   REMARKS
WEST MEMPHIS   TSTM      72  70  93 S14       29.86R VSB 1/2
$$

ARZ050-053-066-070-073-280000-
SOUTHWEST ARKANSAS

CITY           SKY/WX    TMP DP  RH WIND       PRES   REMARKS
ARKADELPHIA    FAIR      70  67  90 W3        29.78R
CAMDEN         CLOUDY    68  64  88 SE17G28   29.70F
TEXARKANA      CLOUDY    68  64  87 S12G21    29.75S
EL DORADO      TSTM      67  65  93 SE18G25   29.76F
DE QUEEN       CLOUDY    70  65  84 E3        29.75F
$$

ARZ056-057-069-280000-
SOUTHEAST ARKANSAS

CITY           SKY/WX    TMP DP  RH WIND       PRES   REMARKS
PINE BLUFF     LGT RAIN  73  70  90 SE16G24   29.75F
STUTTGART      CLOUDY    72  66  83 SE15      29.78F
MONTICELLO     LGT RAIN  73  69  87 S10       29.85S

$$





USA.gov is the U.S. government's official web portal to all federal, state and local government web resources and services.